15min,AgWx,beryljct,423,17DEC2019:00:00:00,13.6,12.79,14.4,15.2,15.4,16.0,14.4,76,78,75,0.232,9.2,9.7,8.1,3.836,3.3,314,4.1,4.3,-0.00003,-0.00003,33.5,36.1,21,0,.,.,8.27,0.00,0.00
15min,AgWx,beryljct,423,17DEC2019:00:15:00,13.5,12.78,13.5,13.3,14.2,15.3,13.3,78,80,77,0.219,8.7,9.5,8.0,2.696,3.2,322,8.1,4.9,-0.00004,-0.00004,33.5,36.1,21,0,.,.,8.27,0.00,0.00
15min,AgWx,beryljct,423,17DEC2019:00:30:00,13.2,12.77,15.7,14.7,14.0,15.1,13.0,79,81,77,0.229,8.8,9.7,7.8,4.209,3.6,314,5.5,4.7,-0.00003,-0.00004,33.4,36.1,21,0,.,.,8.27,0.00,0.00
15min,AgWx,beryljct,423,17DEC2019:00:45:00,13.1,12.76,15.1,14.4,14.5,15.2,13.9,78,79,77,0.232,8.9,9.4,8.0,1.907,2.1,320,6.0,4.2,-0.00006,-0.00008,33.4,36.1,21,0,.,.,8.27,0.00,0.00
15min,AgWx,beryljct,423,17DEC2019:01:00:00,12.9,12.75,15.8,14.6,14.4,15.1,13.6,78,79,76,0.233,8.8,9.5,7.7,3.179,3.1,341,7.4,4.1,-0.00004,-0.00004,33.4,36.1,21,0,.,.,8.27,0.00,0.00
15min,AgWx,beryljct,423,17DEC2019:01:15:00,12.9,12.75,14.2,13.7,14.7,15.1,13.7,78,79,77,0.220,8.9,9.6,7.9,3.223,3.5,345,6.6,4.3,-0.00003,-0.00003,33.3,36.1,21,0,.,.,8.27,0.00,0.00
15min,AgWx,beryljct,423,17DEC2019:01:30:00,13.0,12.71,14.4,13.4,14.5,15.8,13.4,77,79,76,0.215,8.7,9.9,7.6,3.727,3.8,355,9.1,4.7,-0.00003,-0.00003,33.3,36.1,21,0,.,.,8.27,0.00,0.00
15min,AgWx,beryljct,423,17DEC2019:01:45:00,13.0,12.72,13.3,13.2,14.0,14.9,13.1,78,79,77,0.219,8.4,9.4,7.7,2.74,3.8,355,11,5.5,-0.00003,-0.00003,33.3,36.1,21,0,.,.,8.27,0.00,0.00
15min,AgWx,beryljct,423,17DEC2019:02:00:00,12.7,12.72,13.0,11.7,11.7,13.2,11.0,81,84,79,0.216,7.0,7.9,6.6,3.508,3.4,323,14,4.9,-0.00004,-0.00004,33.3,36.1,21,0,.,.,8.27,0.00,0.00
15min,AgWx,beryljct,423,17DEC2019:02:15:00,12.2,12.71,13.8,13.4,13.1,14.3,11.9,80,84,77,0.215,8.1,8.8,7.5,3.354,2.8,335,19,3.9,-0.00005,-0.00005,33.3,36.1,21,0,.,.,8.27,0.00,0.00
15min,AgWx,beryljct,423,17DEC2019:02:30:00,11.9,12.69,15.8,13.5,12.4,13.5,11.3,79,81,77,0.223,7.1,8.3,6.2,3.661,3.5,321,11,5.3,-0.00003,-0.00003,33.2,36.0,21,0,.,.,8.27,0.00,0.00
15min,AgWx,beryljct,423,17DEC2019:02:45:00,11.9,12.69,14.1,13.9,14.2,14.6,13.6,77,79,76,0.219,8.3,8.8,7.9,3.508,3.2,347,12,4.7,-0.00004,-0.00004,33.2,36.0,21,0,.,.,8.27,0.00,0.00
15min,AgWx,beryljct,423,17DEC2019:03:00:00,12.0,12.67,12.0,12.1,13.0,13.8,12.0,78,80,77,0.209,7.5,8.1,6.5,3.727,3.4,333,21,4.8,-0.00003,-0.00004,33.2,36.0,21,0,.,.,8.27,0.00,0.00
15min,AgWx,beryljct,423,17DEC2019:03:15:00,11.9,12.67,13.2,13.7,13.2,14.0,11.8,80,82,79,0.222,8.1,8.7,6.8,3.529,4.0,311,7.1,4.8,-0.00003,-0.00003,33.2,36.0,21,0,.,.,8.27,0.00,0.00
15min,AgWx,beryljct,423,17DEC2019:03:30:00,11.9,12.65,12.2,11.8,12.9,13.8,11.8,79,81,78,0.210,7.6,8.5,6.9,5.349,4.2,328,10,5.5,-0.00002,-0.00002,33.1,36.0,21,0,.,.,8.27,0.00,0.00
15min,AgWx,beryljct,423,17DEC2019:03:45:00,11.8,12.64,13.6,13.2,12.4,13.2,11.8,82,82,81,0.222,7.9,8.5,7.1,5.393,5.0,328,19,6.6,-0.00002,-0.00002,33.1,36.0,21,0,.,.,8.27,0.00,0.00
15min,AgWx,beryljct,423,17DEC2019:04:00:00,12.0,12.62,11.2,11.1,12.6,13.3,11.1,80,81,80,0.204,7.6,8.4,6.4,4.867,5.4,343,8.3,7.2,-0.00001,-0.00001,33.1,36.0,21,0,.,.,8.27,0.00,0.00
15min,AgWx,beryljct,423,17DEC2019:04:15:00,11.7,12.62,11.6,11.0,10.8,11.1,10.5,82,83,81,0.208,6.5,6.9,6.2,4.077,4.5,327,8.3,5.8,-0.00002,-0.00002,33.1,36.0,21,0,.,.,8.27,0.00,0.00
15min,AgWx,beryljct,423,17DEC2019:04:30:00,11.4,12.62,11.7,11.2,11.1,11.4,11.0,82,83,82,0.209,6.8,7.1,6.5,4.691,4.9,325,8.6,6.3,-0.00002,-0.00002,33.0,35.9,21,0,.,.,8.27,0.00,0.00
15min,AgWx,beryljct,423,17DEC2019:04:45:00,11.3,12.61,12.2,11.9,12.2,13.0,11.2,81,83,79,0.208,7.5,8.2,6.7,3.595,4.0,337,19,5.8,-0.00003,-0.00003,33.0,35.9,20,0,.,.,8.27,0.00,0.00
15min,AgWx,beryljct,423,17DEC2019:05:00:00,11.2,12.6,12.2,11.7,11.9,12.2,11.5,81,81,80,0.209,7.1,7.4,6.6,3.595,3.9,317,7.9,4.9,-0.00003,-0.00003,33.0,35.9,21,0,.,.,8.27,0.00,0.00
15min,AgWx,beryljct,423,17DEC2019:05:15:00,11.0,12.59,11.6,10.5,11.4,11.8,10.5,81,82,81,0.201,6.8,7.3,5.9,2.784,2.8,317,11,4.5,-0.00005,-0.00005,32.9,35.9,21,0,.,.,8.27,0.00,0.00
15min,AgWx,beryljct,423,17DEC2019:05:30:00,10.6,12.57,12.0,11.7,11.6,12.0,10.4,82,83,81,0.211,7.1,7.8,6.0,0,1.6,317,19,5.3,-0.00008,-0.00009,32.9,35.9,20,0,.,.,8.27,0.00,0.00
15min,AgWx,beryljct,423,17DEC2019:05:45:00,10.2,12.58,12.3,12.2,12.0,12.4,11.6,81,82,80,0.212,7.3,7.7,7.1,1.644,1.9,312,5.3,2.8,-0.00007,-0.00009,32.9,35.9,21,0,.,.,8.28,0.00,0.00
15min,AgWx,beryljct,423,17DEC2019:06:00:00,10.1,12.58,11.6,11.2,11.8,12.4,11.2,81,81,79,0.205,7.0,7.6,6.1,1.403,1.5,344,13,3.6,-0.00008,-0.00010,32.9,35.9,21,0,.,.,8.27,0.00,0.00
15min,AgWx,beryljct,423,17DEC2019:06:15:00,9.8,12.57,11.5,11.3,11.2,11.9,10.6,81,82,81,0.206,6.7,7.4,5.9,2.653,3.1,320,13,4.2,-0.00004,-0.00005,32.8,35.8,21,0,.,.,8.28,0.00,0.00
15min,AgWx,beryljct,423,17DEC2019:06:30:00,9.8,12.57,10.6,9.9,10.4,11.2,9.7,82,84,81,0.199,6.1,6.7,5.5,5.437,4.4,326,16,5.5,-0.00003,-0.00002,32.8,35.8,21,0,.,.,8.28,0.00,0.00
15min,AgWx,beryljct,423,17DEC2019:06:45:00,9.8,12.57,10.2,10.6,10.9,11.7,9.9,83,85,82,0.203,6.9,7.6,6.0,3.223,4.6,322,15,6.3,-0.00003,-0.00002,32.8,35.8,21,0,.,.,8.28,0.00,0.00
15min,AgWx,beryljct,423,17DEC2019:07:00:00,9.7,12.56,12.1,10.8,9.9,10.8,8.8,84,86,82,0.211,6.1,7.2,4.8,3.595,3.6,311,10,4.6,0.00005,0.00008,32.8,35.8,21,0,.,.,8.28,0.00,0.00
15min,AgWx,beryljct,423,17DEC2019:07:15:00,9.5,12.56,11.0,10.3,10.3,11.0,9.8,84,85,83,0.202,6.4,7.4,5.9,3.639,3.1,333,9.8,4.6,0.00004,0.00008,32.8,35.8,21,0,.,.,8.28,0.00,0.00
15min,AgWx,beryljct,423,17DEC2019:07:30:00,9.3,12.55,8.1,7.8,9.4,10.4,7.8,84,85,83,0.182,5.4,6.3,3.9,2.499,3.8,325,8.8,4.9,0.00005,0.00009,32.7,35.8,21,1,.,.,8.28,0.00,0.00
15min,AgWx,beryljct,423,17DEC2019:07:45:00,8.9,12.55,10.4,9.6,9.0,10.0,7.8,85,87,84,0.199,5.5,6.7,4.0,3.771,2.9,322,13,3.8,0.00004,0.00007,32.7,35.7,21,4,.,.,8.28,0.00,0.00
15min,AgWx,beryljct,423,17DEC2019:08:00:00,8.8,12.84,10.0,11.2,10.6,11.3,9.6,83,85,82,0.208,6.5,7.3,5.6,0.767,2.0,338,9.3,3.9,0.00008,0.00011,32.7,35.7,21,20,.,.,8.27,0.00,0.00
15min,AgWx,beryljct,423,17DEC2019:08:15:00,9.1,14.57,10.9,10.1,9.7,11.0,9.1,82,83,81,0.199,5.3,6.7,4.7,0,0.1,14,15,1.1,0.00013,0.00014,32.6,35.7,21,61,.,.,8.28,0.00,0.00
15min,AgWx,beryljct,423,17DEC2019:08:30:00,10.3,14.93,11.4,11.0,10.6,11.0,10.2,84,87,82,0.216,6.8,7.7,6.0,0.482,0.4,81,14,1.9,0.00020,0.00022,32.6,35.7,21,98,.,.,8.27,0.00,0.00
15min,AgWx,beryljct,423,17DEC2019:08:45:00,12.1,14.95,12.3,12.4,11.5,12.4,11.0,85,86,85,0.228,7.9,8.9,7.5,2.696,1.0,107,28,3.2,0.00027,0.00030,32.6,35.7,21,135,.,.,8.28,0.00,0.00
15min,AgWx,beryljct,423,17DEC2019:09:00:00,14.1,14.94,14.2,14.0,13.1,14.1,12.3,84,85,82,0.237,9.1,9.8,8.7,2.302,2.4,175,4.2,3.6,0.00036,0.00041,32.6,35.7,21,173,.,.,8.27,0.00,0.00
15min,AgWx,beryljct,423,17DEC2019:09:15:00,16.3,14.97,14.7,14.5,14.5,14.8,13.8,82,83,81,0.238,10.0,10.6,9.3,2.258,2.5,148,14,3.7,0.00045,0.00051,32.5,35.7,21,212,.,.,8.27,0.00,0.00
15min,AgWx,beryljct,423,17DEC2019:09:30:00,18.2,14.92,15.5,15.2,15.0,16.1,14.5,79,82,77,0.235,9.8,10.2,9.4,0,2.0,146,17,4.0,0.00056,0.00062,32.5,35.7,21,251,.,.,8.27,0.00,0.00
15min,AgWx,beryljct,423,17DEC2019:09:45:00,20.2,14.96,15.8,16.1,15.9,16.8,15.1,77,78,75,0.238,9.8,10.9,9.2,0,0.6,167,29,2.8,0.00068,0.00074,32.5,35.6,21,288,.,.,8.27,0.00,0.00
15min,AgWx,beryljct,423,17DEC2019:10:00:00,22.4,14.89,19.0,18.8,16.9,18.8,15.8,75,76,72,0.253,10.4,11.4,9.5,0.022,0.3,285,39,2.0,0.00079,0.00085,32.5,35.6,21,322,.,.,8.27,0.00,0.00
15min,AgWx,beryljct,423,17DEC2019:10:15:00,24.4,14.91,18.4,19.9,19.1,20.3,18.3,71,72,69,0.263,11.1,12.5,10.4,2.631,0.9,213,30,3.2,0.00093,0.00101,32.4,35.6,21,358,.,.,8.27,0.00,0.00
15min,AgWx,beryljct,423,17DEC2019:10:30:00,25.9,14.47,19.7,19.7,19.5,20.2,19.0,71,74,69,0.261,11.6,13.2,10.8,1.206,1.5,101,32,3.2,0.00101,0.00111,32.4,35.6,21,391,.,.,8.27,0.00,0.00
15min,AgWx,beryljct,423,17DEC2019:10:45:00,26.7,14.45,22.2,20.6,20.2,20.8,19.6,71,73,69,0.270,12.3,13.2,11.0,1.995,3.7,89,22,5.6,0.00104,0.00119,32.4,35.6,21,419,.,.,8.27,0.00,0.00
15min,AgWx,beryljct,423,17DEC2019:11:00:00,27.1,14.44,21.7,21.8,21.3,22.1,20.6,70,72,68,0.274,13.1,13.8,12.2,0.789,1.8,88,36,4.1,0.00119,0.00131,32.4,35.6,21,443,.,.,8.27,0.00,0.00
15min,AgWx,beryljct,423,17DEC2019:11:15:00,28.0,14.41,22.0,22.6,22.1,22.9,21.5,68,69,67,0.284,13.2,14.3,12.3,1.228,1.3,109,14,3.8,0.00129,0.00141,32.4,35.6,21,465,.,.,8.27,0.01,0.00
15min,AgWx,beryljct,423,17DEC2019:11:30:00,28.8,14.41,23.3,23.3,22.8,23.3,22.5,67,70,66,0.284,13.5,14.7,13.0,4.384,2.7,104,27,5.2,0.00132,0.00148,32.4,35.6,21,483,.,.,8.27,0.00,0.00
15min,AgWx,beryljct,423,17DEC2019:11:45:00,29.3,14.4,24.7,24.7,23.8,24.8,23.1,66,68,63,0.286,14.0,14.9,13.2,3.31,2.5,86,26,5.2,0.00140,0.00156,32.3,35.5,21,498,.,.,8.27,0.00,0.00
15min,AgWx,beryljct,423,17DEC2019:12:00:00,29.8,14.37,28.5,25.1,25.2,26.1,24.5,63,65,60,0.285,14.2,15.4,13.1,2.894,2.0,119,44,4.4,0.00150,0.00166,32.3,35.5,21,509,.,.,8.27,0.00,0.00
15min,AgWx,beryljct,423,17DEC2019:12:15:00,30.4,14.38,27.3,25.9,26.0,26.8,24.9,60,64,58,0.279,14.0,15.3,12.9,0.066,1.9,132,27,5.0,0.00156,0.00174,32.3,35.5,21,517,.,.,8.27,0.00,0.00
15min,AgWx,beryljct,423,17DEC2019:12:30:00,30.9,14.35,27.3,27.0,26.8,27.7,26.0,57,60,53,0.268,13.6,15.0,12.2,2.039,1.5,34,39,6.2,0.00161,0.00179,32.3,35.5,21,519,.,.,8.27,0.00,0.00
15min,AgWx,beryljct,423,17DEC2019:12:45:00,31.5,14.32,27.6,27.1,26.6,27.1,26.2,55,56,53,0.279,12.5,13.5,11.7,4.056,2.2,347,28,5.1,0.00159,0.00179,32.3,35.5,21,518,.,.,8.27,0.00,0.00
15min,AgWx,beryljct,423,17DEC2019:13:00:00,32.0,14.33,28.9,27.9,27.4,28.0,27.0,52,56,47,0.252,12.1,14.2,10.1,6.05,3.3,48,21,7.9,0.00160,0.00186,32.3,35.5,21,514,.,.,8.27,0.00,0.00
15min,AgWx,beryljct,423,17DEC2019:13:15:00,32.5,14.3,29.6,28.8,27.8,28.8,27.0,48,50,47,0.265,10.8,12.2,9.7,6.423,2.8,50,47,6.4,0.00161,0.00186,32.3,35.5,21,507,.,.,8.26,0.00,0.00
15min,AgWx,beryljct,423,17DEC2019:13:30:00,32.9,14.36,28.0,28.2,28.7,29.2,28.2,50,51,48,0.255,12.2,13.2,11.1,1.293,3.3,57,36,6.0,0.00160,0.00186,32.4,35.4,21,496,.,.,8.26,0.00,0.00
15min,AgWx,beryljct,423,17DEC2019:13:45:00,33.3,14.29,29.4,28.8,28.9,29.6,27.9,48,51,46,0.261,11.8,13.2,10.6,1.337,3.2,26,46,6.9,0.00156,0.00182,32.4,35.4,21,482,.,.,8.26,0.00,0.00
15min,AgWx,beryljct,423,17DEC2019:14:00:00,33.6,14.24,29.7,28.9,29.0,29.9,28.6,50,52,49,0.271,12.7,14.2,11.8,3.617,4.3,22,18,7.5,0.00144,0.00173,32.3,35.4,21,447,.,.,8.26,0.00,0.00
15min,AgWx,beryljct,423,17DEC2019:14:15:00,34.1,14.3,29.4,29.4,29.8,30.2,29.0,50,52,49,0.278,13.5,14.7,12.6,4.538,5.1,24,20,7.3,0.00145,0.00177,32.3,35.4,21,441,.,.,8.26,0.00,0.00
15min,AgWx,beryljct,423,17DEC2019:14:30:00,34.4,14.34,30.4,30.4,29.9,31.0,29.1,49,51,46,0.270,13.2,14.3,12.1,5.415,4.2,18,22,7.5,0.00134,0.00164,32.3,35.4,21,409,.,.,8.26,0.00,0.00
15min,AgWx,beryljct,423,17DEC2019:14:45:00,34.9,14.22,31.1,31.4,30.7,31.6,30.1,48,51,47,0.286,13.5,14.8,12.4,6.511,5.4,34,18,10.3,0.00132,0.00166,32.4,35.4,21,388,.,.,8.26,0.00,0.00
15min,AgWx,beryljct,423,17DEC2019:15:00:00,35.4,14.2,32.0,31.6,31.3,31.7,31.0,48,50,46,0.285,13.8,15.2,12.5,7.804,6.0,29,14,8.9,0.00123,0.00160,32.3,35.4,21,351,.,.,8.26,0.00,0.00
15min,AgWx,beryljct,423,17DEC2019:15:15:00,35.7,14.2,31.7,32.0,31.5,32.2,31.1,47,49,46,0.288,13.6,15.0,12.7,5.152,4.9,13,12,8.2,0.00113,0.00146,32.4,35.4,21,325,.,.,8.26,0.00,0.00
15min,AgWx,beryljct,423,17DEC2019:15:30:00,36.2,14.16,33.0,32.1,32.2,32.6,31.9,45,48,44,0.279,13.4,14.8,12.3,5.152,4.0,33,13,7.2,0.00099,0.00128,32.4,35.3,21,286,.,.,8.26,0.00,0.00
15min,AgWx,beryljct,423,17DEC2019:15:45:00,36.6,14.15,32.3,32.2,32.2,32.6,32.0,47,48,45,0.285,14.1,14.9,13.2,5.174,4.3,11,15,6.8,0.00090,0.00119,32.4,35.3,21,260,.,.,8.25,0.00,0.00
15min,AgWx,beryljct,423,17DEC2019:16:00:00,36.9,14.23,32.5,32.3,32.3,32.6,32.1,46,47,45,0.284,13.8,14.5,13.4,3.113,4.6,17,14,6.9,0.00075,0.00106,32.4,35.3,21,215,.,.,8.25,0.00,0.00
15min,AgWx,beryljct,423,17DEC2019:16:15:00,36.9,14.2,32.2,32.1,32.2,32.4,32.1,46,48,45,0.281,13.7,14.7,13.1,3.442,3.9,16,13,5.5,0.00052,0.00077,32.4,35.3,21,160,.,.,8.25,0.00,0.00
15min,AgWx,beryljct,423,17DEC2019:16:30:00,36.0,14.24,31.8,31.6,31.9,32.1,31.6,47,49,45,0.296,13.9,14.8,12.9,4.494,4.5,16,12,6.9,0.00020,0.00026,32.4,35.3,20,87,.,.,8.25,0.00,0.00
15min,AgWx,beryljct,423,17DEC2019:16:45:00,34.4,13.46,31.1,31.0,31.3,31.6,31.0,48,50,47,0.289,14.0,14.9,13.4,4.231,4.5,7.8,8.3,6.1,0.00013,0.00018,32.4,35.3,21,42,.,.,8.26,0.00,0.00
15min,AgWx,beryljct,423,17DEC2019:17:00:00,32.3,13.27,26.6,26.9,29.1,31.0,26.9,58,66,49,0.330,16.0,17.2,14.2,2.17,3.4,346,9.3,4.2,0.00004,0.00006,32.4,35.3,21,24,.,.,8.25,0.00,0.00
15min,AgWx,beryljct,423,17DEC2019:17:15:00,29.8,13.16,25.2,25.2,25.6,26.9,25.1,71,72,67,0.332,17.5,17.7,17.3,2.609,2.9,310,11,3.3,-0.00003,-0.00003,32.4,35.3,21,10,.,.,8.26,0.00,0.00
15min,AgWx,beryljct,423,17DEC2019:17:30:00,27.6,13.09,26.0,26.1,25.7,26.2,25.1,69,72,66,0.319,16.9,17.4,16.4,3.157,3.7,298,6.2,4.4,-0.00002,-0.00001,32.4,35.3,21,2,.,.,8.26,0.00,0.00
15min,AgWx,beryljct,423,17DEC2019:17:45:00,26.1,13.07,24.1,24.1,25.5,26.6,24.1,67,72,63,0.317,16.1,16.5,15.6,3.244,3.3,313,3.2,3.9,-0.00003,-0.00002,32.4,35.3,21,0,.,.,8.26,0.00,0.00
15min,AgWx,beryljct,423,17DEC2019:18:00:00,25.1,13.03,25.1,24.9,24.9,25.5,24.0,69,72,68,0.315,16.3,16.6,16.0,4.626,4.5,291,9.2,6.0,0.00000,0.00001,32.4,35.2,21,0,.,.,8.26,0.00,0.00
15min,AgWx,beryljct,423,17DEC2019:18:15:00,24.5,13.02,23.8,23.6,24.5,25.0,23.6,71,74,69,0.320,16.5,16.7,16.2,2.85,3.8,299,8.2,4.7,-0.00002,-0.00001,32.4,35.3,21,0,.,.,8.26,0.00,0.00
15min,AgWx,beryljct,423,17DEC2019:18:30:00,23.7,13,23.7,23.1,23.3,23.6,22.8,75,77,74,0.316,16.5,16.8,16.2,3.069,2.8,305,2.3,3.3,-0.00006,-0.00006,32.4,35.2,21,0,.,.,8.26,0.00,0.00
15min,AgWx,beryljct,423,17DEC2019:18:45:00,23.0,13,22.8,22.2,22.5,23.2,21.9,77,79,75,0.318,16.3,16.7,16.1,2.411,2.4,303,12,3.4,-0.00007,-0.00008,32.4,35.2,21,0,.,.,8.26,0.00,0.00
15min,AgWx,beryljct,423,17DEC2019:19:00:00,22.4,12.98,23.7,23.2,23.2,23.8,22.2,76,78,74,0.318,16.7,17.4,16.4,3.201,2.3,299,7.7,3.6,-0.00008,-0.00009,32.4,35.2,20,0,.,.,8.26,0.00,0.00
15min,AgWx,beryljct,423,17DEC2019:19:15:00,22.1,12.98,23.9,23.9,23.5,24.1,22.8,73,75,71,0.309,16.2,16.7,15.7,4.362,3.0,311,13,5.1,-0.00005,-0.00005,32.4,35.2,21,0,.,.,8.26,0.00,0.00
15min,AgWx,beryljct,423,17DEC2019:19:30:00,22.2,12.96,25.0,24.5,24.1,24.7,23.5,70,72,68,0.313,15.8,16.1,15.5,2.894,4.0,317,18,5.6,-0.00001,-0.00000,32.4,35.2,21,0,.,.,8.26,0.00,0.00
15min,AgWx,beryljct,423,17DEC2019:19:45:00,22.5,12.95,22.8,22.9,24.1,24.9,22.9,68,71,65,0.298,15.1,16.0,14.4,2.981,4.7,325,7.5,5.9,0.00001,0.00002,32.4,35.2,21,0,.,.,8.26,0.00,0.00
15min,AgWx,beryljct,423,17DEC2019:20:00:00,22.4,12.94,23.9,23.3,22.8,23.3,22.2,72,73,70,0.300,15.1,15.4,14.6,3.179,3.7,341,19,5.5,-0.00003,-0.00002,32.4,35.2,21,0,.,.,8.27,0.00,0.00
15min,AgWx,beryljct,423,17DEC2019:20:15:00,22.3,12.91,24.4,23.3,23.0,23.7,22.1,70,73,67,0.287,14.5,15.1,13.8,3.551,2.8,341,13,3.9,-0.00004,-0.00004,32.4,35.2,21,0,.,.,8.26,0.00,0.00
15min,AgWx,beryljct,423,17DEC2019:20:30:00,22.3,12.92,24.9,24.7,24.6,25.2,23.4,61,67,58,0.265,13.1,14.0,12.2,1.973,2.7,353,11,4.9,-0.00003,-0.00002,32.4,35.2,21,0,.,.,8.26,0.00,0.00
15min,AgWx,beryljct,423,17DEC2019:20:45:00,22.3,12.91,24.0,23.9,24.7,25.3,23.9,58,60,57,0.261,12.1,12.6,11.7,3.617,3.1,18,18,5.1,-0.00001,0.00000,32.4,35.2,21,0,.,.,8.26,0.00,0.00
15min,AgWx,beryljct,423,17DEC2019:21:00:00,22.3,12.9,24.0,23.9,23.7,23.9,23.4,61,62,60,0.264,12.2,12.4,11.8,2.433,2.8,23,7.2,4.2,-0.00003,-0.00002,32.4,35.2,21,0,.,.,8.27,0.00,0.00
15min,AgWx,beryljct,423,17DEC2019:21:15:00,22.1,12.88,22.7,22.4,22.8,23.9,22.2,63,65,60,0.262,12.1,12.4,11.9,0.986,1.9,31,5.8,3.6,-0.00007,-0.00008,32.4,35.2,21,0,.,.,8.27,0.00,0.00
15min,AgWx,beryljct,423,17DEC2019:21:30:00,21.5,12.88,21.9,21.4,21.9,22.4,21.3,65,67,64,0.265,12.0,12.3,11.8,0,0.6,34,1.5,1.4,-0.00014,-0.00021,32.4,35.2,21,0,.,.,8.27,0.00,0.00
15min,AgWx,beryljct,423,17DEC2019:21:45:00,20.9,12.88,22.5,22.0,21.8,22.1,21.4,66,67,66,0.265,12.2,12.4,12.1,0,0.1,11,8.6,0.6,-0.00019,-0.00029,32.4,35.2,20,0,.,.,8.27,0.00,0.00
15min,AgWx,beryljct,423,17DEC2019:22:00:00,20.6,12.86,22.8,22.2,22.1,22.4,21.9,66,67,65,0.270,12.6,12.8,12.2,0.899,1.3,5.5,18,3.3,-0.00010,-0.00013,32.4,35.2,21,0,.,.,8.27,0.00,0.00
15min,AgWx,beryljct,423,17DEC2019:22:15:00,20.5,12.85,22.1,22.0,22.3,22.5,22.0,67,67,66,0.272,12.9,13.1,12.7,2.543,2.0,14,12,3.2,-0.00007,-0.00008,32.4,35.1,21,0,.,.,8.27,0.00,0.00
15min,AgWx,beryljct,423,17DEC2019:22:30:00,20.4,12.85,21.6,21.2,21.6,22.1,21.2,69,72,67,0.281,13.2,13.5,12.9,1.71,1.8,15,5.8,2.8,-0.00008,-0.00010,32.4,35.2,21,0,.,.,8.27,0.00,0.00
15min,AgWx,beryljct,423,17DEC2019:22:45:00,20.2,12.84,20.1,20.1,20.6,21.3,20.0,73,76,71,0.282,13.2,13.7,12.9,0,1.6,11,0.1,2.1,-0.00009,-0.00011,32.4,35.1,21,0,.,.,8.27,0.00,0.00
15min,AgWx,beryljct,423,17DEC2019:23:00:00,19.8,12.83,20.3,19.9,20.0,20.3,19.8,75,76,73,0.279,13.3,13.7,12.9,2.017,1.2,10,0.1,2.2,-0.00011,-0.00015,32.4,35.1,21,0,.,.,8.27,0.00,0.00
15min,AgWx,beryljct,423,17DEC2019:23:15:00,19.5,12.82,19.0,18.8,18.9,20.0,18.2,77,79,75,0.274,12.8,13.5,12.2,3.179,3.4,327,17,4.9,-0.00004,-0.00004,32.4,35.1,21,0,.,.,8.27,0.01,0.00
15min,AgWx,beryljct,423,17DEC2019:23:30:00,19.1,12.81,17.6,17.5,17.7,18.8,17.2,80,82,77,0.274,12.6,13.0,12.1,2.653,3.0,333,9.8,3.9,-0.00005,-0.00006,32.4,35.1,21,0,.,.,8.27,0.00,0.00
15min,AgWx,bigpiney,439,17DEC2019:00:00:00,-6.0,12.47,-8.4,-9.4,-9.6,-8.8,-10.6,74,76,74,0.072,-15.5,-14.5,-16.7,5.13,5.8,238,7.8,7.0,0.00000,0.00000,31.7,33.2,51,0,0,0.0,5.69,0.00,0.00
15min,AgWx,bigpiney,439,17DEC2019:00:15:00,-6.3,12.45,-10.9,-11.2,-10.4,-9.2,-11.4,75,76,74,0.066,-16.2,-14.9,-17.3,4.932,5.2,226,11,7.2,-0.00000,0.00000,31.7,33.1,51,0,0,0.0,5.69,0.00,0.00
15min,AgWx,bigpiney,439,17DEC2019:00:30:00,-6.8,12.44,-10.7,-11.7,-12.3,-11.2,-12.8,76,77,75,0.066,-17.7,-16.9,-18.3,6.226,5.2,215,8.4,6.2,-0.00000,-0.00000,31.7,33.1,51,0,0,0.0,5.69,0.00,0.00
15min,AgWx,bigpiney,439,17DEC2019:00:45:00,-7.2,12.43,-10.8,-12.2,-12.4,-11.5,-13.0,76,77,76,0.064,-17.7,-16.7,-18.4,7.782,7.4,206,4.6,9.6,0.00000,0.00001,31.7,33.2,51,0,0,0.0,5.69,0.00,0.00
15min,AgWx,bigpiney,439,17DEC2019:01:00:00,-7.5,12.41,-9.3,-10.1,-10.7,-9.9,-12.2,77,77,76,0.070,-16.0,-15.3,-17.4,6.883,7.8,217,4.6,8.9,0.00001,0.00001,31.7,33.1,51,0,0,0.0,5.69,0.00,0.00
15min,AgWx,bigpiney,439,17DEC2019:01:15:00,-7.5,12.39,-6.8,-7.8,-9.1,-7.8,-10.1,75,76,74,0.077,-14.8,-13.8,-15.7,6.489,7.1,230,5.2,8.7,0.00001,0.00001,31.6,33.1,51,0,0,0.0,5.69,0.00,0.00
15min,AgWx,bigpiney,439,17DEC2019:01:30:00,-7.2,12.4,-7.0,-6.7,-8.1,-6.6,-9.0,74,75,73,0.081,-14.3,-12.8,-15.2,3.551,5.3,226,6.4,7.5,0.00000,0.00000,31.6,33.1,51,0,0,0.0,5.69,0.00,0.00
15min,AgWx,bigpiney,439,17DEC2019:01:45:00,-6.9,12.39,-13.5,-14.1,-10.8,-6.9,-14.1,74,77,73,0.059,-16.7,-13.1,-19.4,2.346,2.8,0.6,20,4.8,-0.00002,-0.00002,31.6,33.1,51,0,0,0.0,5.69,0.00,0.00
15min,AgWx,bigpiney,439,17DEC2019:02:00:00,-7.1,12.38,-10.3,-11.2,-12.1,-10.9,-14.1,79,80,77,0.071,-16.7,-15.3,-19.3,0.066,1.9,342,40,3.9,-0.00003,-0.00003,31.6,33.1,51,0,0,0.0,5.69,0.00,0.00
15min,AgWx,bigpiney,439,17DEC2019:02:15:00,-7.4,12.36,-11.8,-12.4,-11.5,-10.7,-12.4,80,82,79,0.066,-15.9,-14.7,-17.0,2.718,3.3,256,18,6.3,-0.00002,-0.00002,31.6,33.1,51,0,0,0.0,5.69,0.00,0.00
15min,AgWx,bigpiney,439,17DEC2019:02:30:00,-7.8,12.36,-5.9,-7.5,-9.2,-6.3,-12.5,79,82,75,0.080,-14.0,-11.3,-17.1,2.17,1.8,254,23,3.8,-0.00003,-0.00004,31.6,33.1,51,0,0,0.0,5.69,0.00,0.00
15min,AgWx,bigpiney,439,17DEC2019:02:45:00,-8.1,12.35,-10.0,-8.7,-9.9,-7.3,-12.0,76,79,73,0.075,-15.4,-12.4,-17.6,1.82,2.0,218,42,5.1,-0.00003,-0.00003,31.6,33.1,51,0,0,0.0,5.69,0.00,0.00
15min,AgWx,bigpiney,439,17DEC2019:03:00:00,-8.4,12.34,-9.4,-11.3,-10.1,-7.6,-13.1,75,80,72,0.064,-15.8,-12.3,-19.5,5.48,3.7,226,13,5.9,-0.00001,-0.00001,31.6,33.1,51,0,0,0.0,5.69,0.00,0.00
15min,AgWx,bigpiney,439,17DEC2019:03:15:00,-8.8,12.33,-12.0,-12.8,-12.0,-8.9,-13.2,76,77,73,0.063,-17.6,-14.1,-18.8,4.516,5.1,221,6.2,6.0,-0.00000,0.00000,31.6,33.1,51,0,0,0.0,5.69,0.00,0.00
15min,AgWx,bigpiney,439,17DEC2019:03:30:00,-9.1,12.33,-10.0,-10.8,-11.5,-7.2,-13.4,78,82,75,0.069,-16.6,-11.3,-18.6,5.196,6.1,230,4.9,8.0,0.00000,0.00000,31.6,33.1,51,0,0,0.0,5.69,0.00,0.00
15min,AgWx,bigpiney,439,17DEC2019:03:45:00,-9.2,12.33,-12.4,-12.7,-12.3,-10.8,-13.1,76,77,75,0.063,-17.7,-16.2,-18.4,4.538,4.6,234,7.3,6.1,-0.00000,-0.00000,31.5,33.1,51,0,0,0.0,5.69,0.00,0.00
15min,AgWx,bigpiney,439,17DEC2019:04:00:00,-9.4,12.32,-12.1,-12.7,-12.3,-11.5,-13.6,77,78,76,0.062,-17.5,-16.4,-18.9,6.862,5.2,228,7.4,6.9,-0.00000,-0.00000,31.5,33.0,51,0,0,0.0,5.69,0.00,0.00
15min,AgWx,bigpiney,439,17DEC2019:04:15:00,-9.4,12.32,-9.4,-10.4,-11.0,-9.5,-12.7,76,78,74,0.069,-16.4,-15.0,-18.1,4.779,6.6,239,6.1,8.1,0.00000,0.00001,31.5,33.1,51,0,0,0.0,5.69,0.00,0.00
15min,AgWx,bigpiney,439,17DEC2019:04:30:00,-9.2,12.3,-7.0,-7.2,-8.1,-6.6,-10.4,75,76,73,0.078,-14.0,-12.8,-16.1,4.669,5.7,237,7.6,7.6,0.00000,0.00000,31.5,33.1,51,0,0,0.0,5.69,0.00,0.00
15min,AgWx,bigpiney,439,17DEC2019:04:45:00,-8.9,12.3,-10.1,-10.2,-9.6,-7.3,-10.7,74,76,72,0.070,-15.7,-13.7,-16.5,3.836,4.8,218,8.4,6.4,-0.00000,-0.00000,31.5,33.1,51,0,0,0.0,5.69,0.00,0.00
15min,AgWx,bigpiney,439,17DEC2019:05:00:00,-8.8,12.29,-7.7,-8.1,-10.3,-7.9,-11.3,76,78,75,0.079,-15.7,-13.0,-17.0,0.504,1.8,245,26,3.7,-0.00003,-0.00003,31.5,33.1,51,0,0,0.0,5.69,0.00,0.00
15min,AgWx,bigpiney,439,17DEC2019:05:15:00,-8.8,12.3,-11.1,-10.2,-9.9,-7.6,-11.5,75,77,73,0.071,-15.7,-13.0,-17.5,4.077,3.9,236,18,6.6,-0.00001,-0.00001,31.4,33.0,51,0,0,0.0,5.69,0.00,0.00
15min,AgWx,bigpiney,439,17DEC2019:05:30:00,-8.9,12.29,-8.7,-10.8,-11.2,-10.0,-12.3,76,78,74,0.068,-16.7,-15.2,-17.9,1.644,1.5,248,23,4.3,-0.00003,-0.00004,31.4,33.1,51,0,0,0.0,5.69,0.00,0.00
15min,AgWx,bigpiney,439,17DEC2019:05:45:00,-9.1,12.3,-7.0,-7.6,-8.8,-7.3,-10.7,75,77,72,0.080,-14.6,-12.8,-16.7,0.658,0.5,214,17,1.6,-0.00005,-0.00008,31.4,33.1,51,0,0,0.0,5.69,0.00,0.00
15min,AgWx,bigpiney,439,17DEC2019:06:00:00,-9.3,12.29,-4.7,-6.5,-8.7,-6.5,-11.4,74,78,71,0.086,-14.8,-11.6,-18.1,2.433,2.8,211,17,4.7,-0.00002,-0.00002,31.4,33.1,51,0,0,0.0,5.69,0.00,0.00
15min,AgWx,bigpiney,439,17DEC2019:06:15:00,-9.5,12.29,-7.8,-10.1,-7.9,-3.8,-11.2,73,79,69,0.065,-14.2,-9.9,-17.9,6.094,5.0,218,7.8,6.9,-0.00000,0.00000,31.4,33.0,51,0,0,0.0,5.69,0.00,0.00
15min,AgWx,bigpiney,439,17DEC2019:06:30:00,-9.6,12.29,-10.3,-11.5,-10.2,-6.5,-11.8,73,75,70,0.065,-16.5,-12.5,-18.2,4.626,5.1,226,6.5,7.4,0.00000,0.00000,31.4,33.0,51,0,0,0.0,5.69,0.00,0.00
15min,AgWx,bigpiney,439,17DEC2019:06:45:00,-9.6,12.29,-8.7,-9.1,-10.8,-8.9,-12.2,75,76,74,0.073,-16.5,-14.7,-18.2,4.056,4.0,217,12,6.8,-0.00001,-0.00001,31.4,33.0,51,0,0,0.0,5.69,0.00,0.00
15min,AgWx,bigpiney,439,17DEC2019:07:00:00,-9.5,12.29,-9.8,-10.9,-10.3,-8.7,-11.2,74,76,73,0.068,-16.2,-14.8,-17.0,4.713,5.2,198,6.6,6.9,-0.00000,0.00000,31.4,33.1,51,0,0,0.0,5.69,0.00,0.00
15min,AgWx,bigpiney,439,17DEC2019:07:15:00,-9.3,12.28,-9.8,-10.8,-10.8,-10.5,-11.1,77,77,76,0.069,-16.1,-15.7,-16.4,3.529,4.5,207,11,5.8,-0.00001,-0.00000,31.3,33.0,51,0,0,0.0,5.69,0.00,0.00
15min,AgWx,bigpiney,439,17DEC2019:07:30:00,-9.1,12.29,-9.6,-10.5,-9.5,-8.4,-10.7,77,78,73,0.067,-14.8,-13.9,-16.8,4.647,4.7,235,34,6.9,-0.00001,-0.00000,31.3,33.1,51,0,0,0.0,5.69,0.00,0.00
15min,AgWx,bigpiney,439,17DEC2019:07:45:00,-8.8,12.36,-9.5,-10.1,-8.1,-6.3,-10.4,74,77,72,0.070,-14.2,-12.3,-16.5,4.362,3.8,282,28,5.7,-0.00001,-0.00001,31.3,33.0,51,4,0,0.0,5.69,0.00,0.00
15min,AgWx,bigpiney,439,17DEC2019:08:00:00,-8.6,14.99,-9.6,-9.7,-9.8,-9.4,-10.3,76,77,74,0.073,-15.4,-15.0,-16.0,2.324,4.1,328,7.4,5.4,-0.00003,-0.00000,31.3,33.1,51,24,0,0.0,5.69,0.00,0.00
15min,AgWx,bigpiney,439,17DEC2019:08:15:00,-8.2,15,-7.3,-8.5,-9.3,-8.5,-10.5,76,77,74,0.078,-14.8,-13.8,-16.4,2.938,2.9,288,27,4.5,-0.00001,0.00001,31.3,33.1,51,55,0,0.0,5.69,0.00,0.00
15min,AgWx,bigpiney,439,17DEC2019:08:30:00,-7.3,14.99,-6.0,-6.1,-7.4,-5.1,-9.7,76,78,74,0.084,-12.9,-11.0,-15.3,1.666,2.3,298,37,5.3,0.00001,0.00002,31.3,33.1,51,74,0,0.0,5.69,0.00,0.00